Change the Weather History Date:

Monday, April 8, 2013

  Actual Average (KLTS) Record (KLTS)
Temperature  
Mean Temperature 73 °F -  
Max Temperature 86 °F 69 °F 91 °F (2011)
Min Temperature 62 °F 45 °F 33 °F (2003)
Cooling Degree Days 8    
Growing Degree Days 23 (Base 50)    
Moisture  
Dew Point 61 °F    
Average Humidity 69    
Maximum Humidity 90    
Minimum Humidity 44    
Precipitation  
Precipitation 0.00 in - - ()
Sea Level Pressure  
Sea Level Pressure 29.52 in    
Wind  
Wind Speed 17 mph (SSE)    
Max Wind Speed 29 mph    
Max Gust Speed 34 mph    
Visibility 10 miles    
Events      
Averages and records for this station are not official NWS values.
T = Trace of Precipitation, MM = Missing Value Source: NWS Daily Summary

Daily Weather History Graph

Daily Weather History Graph

Search for Another Location

Airport or City:

Trip Planner

Search our weather history database for the weather conditions in past years. The results will help you decide how hot, cold, wet, or windy it might be!

Date:

Astronomy

Apr. 08, 2013 Rise Set
Actual Time 7:13 AM CDT 8:02 PM CDT
Civil Twilight 6:47 AM CDT 8:28 PM CDT
Nautical Twilight 6:17 AM CDT 8:58 PM CDT
Astronomical Twilight 5:46 AM CDT 9:29 PM CDT
Moon 6:00 AM CDT (4/8) 6:40 PM CDT (4/8)
Length of Visible Light 13h 40m
Length of Day
12h 49m
Waning Crescent, 3% of the Moon is Illuminated
Apr 8
Waning Crescent
Apr 10
New
Apr 18
First Quarter
Apr 25
Full
May 2
Last Quarter

Hourly Weather History & Observations

Time (CDT) Temp. Heat Index Dew Point Humidity Pressure Visibility Wind Dir Wind Speed Gust Speed Precip Events Conditions
12:53 AM 64.9 °F - 60.1 °F 84% 29.56 in 10.0 mi SE 10.4 mph - N/A   Clear
1:53 AM 68.0 °F - 61.0 °F 78% 29.54 in 10.0 mi South 17.3 mph - N/A   Clear
2:53 AM 66.9 °F - 60.1 °F 79% 29.52 in 10.0 mi South 19.6 mph - N/A   Clear
3:53 AM 66.9 °F - 60.1 °F 79% 29.51 in 10.0 mi South 17.3 mph - N/A   Clear
4:53 AM 66.0 °F - 60.1 °F 81% 29.51 in 10.0 mi South 16.1 mph - N/A   Clear
5:53 AM 64.0 °F - 59.0 °F 84% 29.52 in 10.0 mi South 13.8 mph - N/A   Clear
6:53 AM 63.0 °F - 59.0 °F 87% 29.55 in 10.0 mi South 11.5 mph - N/A   Clear
7:53 AM 62.1 °F - 59.0 °F 90% 29.57 in 10.0 mi South 10.4 mph - N/A   Clear
8:53 AM 66.0 °F - 61.0 °F 84% 29.58 in 10.0 mi SSE 12.7 mph - N/A   Clear
9:53 AM 71.1 °F - 61.0 °F 70% 29.59 in 10.0 mi South 18.4 mph - N/A   Scattered Clouds
10:53 AM 73.9 °F - 61.0 °F 64% 29.58 in 10.0 mi South 21.9 mph - N/A   Clear
11:53 AM 78.1 °F - 62.1 °F 58% 29.57 in 10.0 mi South 18.4 mph 25.3 mph N/A   Clear
12:53 PM 82.0 °F 83.0 °F 62.1 °F 51% 29.55 in 10.0 mi South 19.6 mph - N/A   Clear
1:53 PM 84.9 °F 85.4 °F 62.1 °F 46% 29.51 in 10.0 mi South 19.6 mph - N/A   Clear
2:53 PM 84.9 °F 85.0 °F 61.0 °F 44% 29.49 in 10.0 mi SSE 20.7 mph 32.2 mph N/A   Clear
3:53 PM 84.9 °F 85.4 °F 62.1 °F 46% 29.47 in 10.0 mi SSE 23.0 mph 33.4 mph N/A   Clear
4:53 PM 82.9 °F 83.3 °F 61.0 °F 47% 29.45 in 10.0 mi SSE 28.8 mph 34.5 mph N/A   Clear
5:53 PM 78.1 °F - 61.0 °F 56% 29.46 in 10.0 mi SSE 27.6 mph 33.4 mph N/A   Clear
6:53 PM 75.9 °F - 61.0 °F 60% 29.47 in 10.0 mi SSE 24.2 mph 34.5 mph N/A   Clear
7:53 PM 73.9 °F - 60.1 °F 62% 29.47 in 10.0 mi SE 18.4 mph 28.8 mph N/A   Clear
8:53 PM 72.0 °F - 61.0 °F 68% 29.49 in 10.0 mi SE 17.3 mph - N/A   Clear
9:53 PM 70.0 °F - 62.1 °F 76% 29.51 in 10.0 mi SE 21.9 mph 29.9 mph N/A   Clear
10:53 PM 69.1 °F - 62.1 °F 78% 29.52 in 10.0 mi SSE 19.6 mph 28.8 mph N/A   Clear
11:48 PM 69.8 °F - 62.6 °F 78% 29.55 in 10.0 mi SSE 20.7 mph 29.9 mph N/A   Mostly Cloudy
11:53 PM 69.1 °F - 62.1 °F 78% 29.51 in 10.0 mi SSE 20.7 mph 29.9 mph N/A   Mostly Cloudy